Powrót do katalogu

THORAD AGENA D DEB

AktywnyPO
NORAD 4950·DEBRIS·🇺🇸 United States

Wystrzelony Apr 8, 1970 z Vandenberg Space Force Base

Loading…

Następne Przeloty

TLE

Source: Space-Track
1 04950U 70025GL  26218.65873324 -.00000094  00000-0 -13323-3 0  9999
2 04950  99.8245 107.2743 0219151 263.7481 121.8209 13.10223097690119

Śledź THORAD AGENA D DEB w czasie rzeczywistym z AllMySat

Download on the App Store